Location: ????? ???????
(25.7275°N, 32.5929°E)
Time: 10:07:10
(UTC+00:00)

Cosmos 1707 Rocket - Pass Details

Date: 02 March 2021
Orbit: 604 x 632 km, 82.5° (Epoch: 15 April)

Event Time Altitude Azimuth Distance (km) Brightness Sun altitude
Rises 16:08:45 0° 3° (N) 2,881 6.9 -4.6°
Reaches altitude 10° 16:11:03 10° 9° (N) 1,969 6.0 -5.1°
Maximum altitude 16:15:14 46° 82° (E) 825 3.8 -6.0°
Drops below altitude 10° 16:19:22 10° 156° (SSE) 1,947 5.9 -7.0°
Sets 16:21:38 0° 163° (SSE) 2,844 6.8 -7.5°
